Flag for United Kingdom Weather past 2 weeks in Southampton, England, United Kingdom

Now
81 °F

Passing clouds.


Feels Like: 81 °F
Forecast: 59 / 72 °F
Wind: 9 mph from Southeast

Location: Southampton / Weather Centre

Current Time: Jul 1, 2015 at 4:19:56 PM

Latest Report: Jul 1, 2015 at 3:50 PM


Visibility: N/A

Pressure: 29.83 "Hg

Humidity: 48%

Dew point: 59 °F

Location of SouthamptonLocation

Historic Weather in Southampton — Graph

°F

Southampton temperature yesterday

Maximum temperature yesterday: 79 °F (at 3:20 PM)
Minimum temperature yesterday: 48 °F (at 5:50 AM)
Average temperature yesterday: 70 °F

Past Weeks' High & Low Weather Summary

 TemperatureHumidityPressure
High82 °F (Jul 1, 2:20 PM)94% (Jun 18, 5:50 AM)30.30 "Hg (Jun 18, 5:50 AM)
Low46 °F (Jun 25, 5:50 AM)38% (Jun 18, 4:50 PM)29.80 "Hg (Jun 22, 1:50 PM)
Average63 °F64%30.10 "Hg
* Reported Jun 16 3:20 PM — Jul 1 3:20 PM, Southampton, Weather by CustomWeather, © 2015

Note: Actual official high and low records may vary slightly from our data, if they occured in-between our weather recording intervals... More about our weather records

Advertising

Southampton weather history for previous 24 hours

 ConditionsComfort  
Time TempWeatherWind HumidityBarometerVisibility
3:20 PM
Wed, Jul 1
82 °FPassing clouds.7 mph45%29.83 "HgN/A
2:50 PM82 °FPassing clouds.8 mph48%29.83 "HgN/A
2:20 PM82 °FPassing clouds.5 mph45%29.83 "HgN/A
1:50 PM81 °FSunny.3 mph51%29.83 "Hg10 mi
1:20 PM77 °FPassing clouds.8 mph54%29.86 "HgN/A
12:50 PM79 °FPassing clouds.3 mph54%29.86 "HgN/A
12:20 PM77 °FPassing clouds.2 mph54%29.83 "HgN/A
11:50 AM75 °FPassing clouds.7 mph54%29.86 "HgN/A
11:20 AM75 °FPassing clouds.8 mph57%29.86 "HgN/A
10:50 AM77 °FPassing clouds.6 mph51%29.86 "HgN/A
10:20 AM77 °FPassing clouds.5 mph51%29.86 "HgN/A
9:50 AM77 °FPassing clouds.9 mph47%29.86 "HgN/A
9:20 AM75 °FPassing clouds.10 mph50%29.86 "HgN/A
8:50 AM75 °FPassing clouds.9 mph50%29.86 "HgN/A
8:20 AM75 °FPassing clouds.9 mph50%29.83 "HgN/A
7:50 AM73 °FPassing clouds.9 mph53%29.86 "HgN/A
7:20 AM73 °FPassing clouds.8 mph50%29.86 "HgN/A
6:50 AM73 °FPassing clouds.6 mph50%29.86 "HgN/A
6:20 AM73 °FPassing clouds.8 mph47%29.83 "HgN/A
5:50 AM73 °FPassing clouds.7 mph47%29.86 "HgN/A
9:50 PM
Tue, Jun 30
72 °FScattered showers. Scattered clouds.3 mph53%29.98 "HgN/A
9:20 PM73 °FPassing clouds.8 mph50%29.95 "HgN/A
8:50 PM73 °FThundershowers. Passing clouds.7 mph50%29.95 "HgN/A
8:20 PM75 °FPassing clouds.5 mph47%29.98 "HgN/A
7:50 PM77 °FPassing clouds.3 mph44%29.98 "HgN/A
7:20 PM77 °FPassing clouds.6 mph47%29.98 "HgN/A
6:50 PM77 °FPassing clouds.7 mph47%29.98 "HgN/A
5:50 PM79 °FPassing clouds.8 mph42%29.98 "HgN/A
5:20 PM79 °FPassing clouds.9 mph39%29.98 "HgN/A
4:50 PM79 °FPassing clouds.9 mph42%30.01 "HgN/A
Weather by CustomWeather, © 2015

See weather overviewHow to use our weather pages